Tracking 20721 objects as of 2-Jun-2020
HD Live streaming from Space Station
objects crossing your sky now

WESTFORD NEEDLES

Track WESTFORD NEEDLES now!
10-day predictions
WESTFORD NEEDLES is classified as:


NORAD ID: 2530
Int'l Code: 1963-014AJ
Perigee: 2,864.8 km
Apogee: 4,380.7 km
Inclination: 87.4 °
Period: 165.7 minutes
Semi major axis: 9993 km
RCS: 0.1665 m2 (medium)
Launch date: May 9, 1963
Source: United States (US)
Launch site: AIR FORCE WESTERN TEST RANGE (AFWTR)
aabbcc
Your satellite tracking list
Your tracking list is empty




NASA's NSSDC Master Catalog

Two Line Element Set (TLE):
1  2530U 63014AJ  19192.49037674 +.00000257 +00000-0 +85166-1 0  9997
2  2530 087.4109 018.3272 0758411 120.6322 273.0377 08.68977679719762
Source of the keplerian elements: AFSPC